Location: Unspecified
(0.0000°N, 0.0000°E)
Time: 23:33:33
(UTC+00:00)

GONETS D1M 1 - Pass Details

Date: 19 May 2026
Orbit: 1435 x 1447 km, 82.5° (Epoch: 7 June)

Event Time Altitude Azimuth Distance (km) Brightness Sun altitude
Rises 04:08:00 0° 142° (SE) 4,536 9.5 -25.4°
Reaches altitude 10° 04:13:27 10° 114° (ESE) 3,557 9.3 -24.1°
Maximum altitude 04:16:21 12° 93° (E) 3,396 9.5 -23.5°
Drops below altitude 10° 04:19:15 10° 73° (ENE) 3,556 9.8 -22.8°
Sets 04:24:37 0° 45° (NE) 4,532 10.4 -21.5°
